| time (UTC) | temp F | wind direction | speed MPH | gust MPH | rain 1hr in | rain 24hr in | rain mn in | humidity % | barometer mb |
| 20260906200732 | 63 | 219 | 1.0 | 2.0 | 0.00 | 0.00 | 0.00 | 67 | 1020.8 |
| 20260906195728 | 64 | 207 | 1.0 | 2.0 | 0.00 | 0.00 | 0.00 | 65 | 1021.0 |
| 20260906194726 | 63 | 270 | 0.0 | 1.0 | 0.00 | 0.00 | 0.00 | 66 | 1021.1 |
| 20260906193721 | 63 | 270 | 0.0 | 1.0 | 0.00 | 0.00 | 0.00 | 65 | 1021.2 |
| 20260906192718 | 63 | 231 | 0.0 | 1.0 | 0.00 | 0.00 | 0.00 | 65 | 1021.2 |
| 20260906191735 | 63 | 217 | 0.0 | 1.0 | 0.00 | 0.00 | 0.00 | 66 | 1021.5 |
| 20260906190732 | 63 | 0.0 | 0.0 | 0.00 | 0.00 | 0.00 | 66 | 1021.5 | |
| 20260906185728 | 63 | 259 | 0.0 | 1.0 | 0.00 | 0.00 | 0.00 | 65 | 1021.5 |
| 20260906184725 | 63 | 209 | 0.0 | 1.0 | 0.00 | 0.00 | 0.00 | 66 | 1021.4 |
| 20260906183722 | 63 | 0.0 | 0.0 | 0.00 | 0.00 | 0.00 | 67 | 1021.7 | |
| 20260906182718 | 64 | 0.0 | 0.0 | 0.00 | 0.00 | 0.00 | 66 | 1021.7 | |
| 20260906181735 | 65 | 0.0 | 0.0 | 0.00 | 0.00 | 0.00 | 64 | 1021.9 | |
| 20260906180731 | 66 | 0.0 | 0.0 | 0.00 | 0.00 | 0.00 | 62 | 1021.9 | |
| 20260906175728 | 66 | 0.0 | 0.0 | 0.00 | 0.00 | 0.00 | 61 | 1022.0 | |
| 20260906174724 | 68 | 0.0 | 0.0 | 0.00 | 0.00 | 0.00 | 59 | 1022.0 | |
| 20260906173720 | 69 | 302 | 0.0 | 1.0 | 0.00 | 0.00 | 0.00 | 56 | 1021.9 |
| 20260906172716 | 71 | 245 | 0.0 | 1.0 | 0.00 | 0.00 | 0.00 | 54 | 1022.0 |
| 20260906171733 | 69 | 215 | 0.0 | 1.0 | 0.00 | 0.00 | 0.00 | 55 | 1022.1 |
| 20260906170729 | 70 | 262 | 0.0 | 1.0 | 0.00 | 0.00 | 0.00 | 53 | 1022.1 |
| 20260906165726 | 71 | 267 | 0.0 | 1.0 | 0.00 | 0.00 | 0.00 | 50 | 1022.3 |
| 20260906164723 | 72 | 250 | 0.0 | 1.0 | 0.00 | 0.00 | 0.00 | 50 | 1022.2 |
| 20260906163718 | 72 | 250 | 1.0 | 2.0 | 0.00 | 0.00 | 0.00 | 48 | 1022.4 |
| 20260906162734 | 74 | 227 | 1.0 | 1.0 | 0.00 | 0.00 | 0.00 | 45 | 1022.4 |
| 20260906161731 | 74 | 183 | 1.0 | 3.0 | 0.00 | 0.00 | 0.00 | 46 | 1022.4 |
| 20260906160727 | 73 | 208 | 1.0 | 2.0 | 0.00 | 0.00 | 0.00 | 48 | 1022.4 |
| 20260906155724 | 74 | 181 | 1.0 | 3.0 | 0.00 | 0.00 | 0.00 | 46 | 1022.6 |
| 20260906154719 | 73 | 171 | 2.0 | 6.0 | 0.00 | 0.00 | 0.00 | 47 | 1022.6 |
| 20260906153716 | 72 | 306 | 1.0 | 2.0 | 0.00 | 0.00 | 0.00 | 47 | 1022.9 |
| 20260906152738 | 74 | 194 | 1.0 | 3.0 | 0.00 | 0.00 | 0.00 | 44 | 1023.0 |
| 20260906151729 | 74 | 216 | 1.0 | 3.0 | 0.00 | 0.00 | 0.00 | 45 | 1023.2 |
| 20260906150725 | 74 | 229 | 1.0 | 2.0 | 0.00 | 0.00 | 0.00 | 45 | 1023.2 |
| 20260906145722 | 75 | 169 | 1.0 | 3.0 | 0.00 | 0.00 | 0.00 | 45 | 1023.3 |
| 20260906144718 | 76 | 255 | 1.0 | 2.0 | 0.00 | 0.00 | 0.00 | 45 | 1023.3 |
| 20260906143735 | 75 | 215 | 1.0 | 3.0 | 0.00 | 0.00 | 0.00 | 47 | 1023.2 |
| 20260906142736 | 72 | 265 | 1.0 | 3.0 | 0.00 | 0.00 | 0.00 | 50 | 1023.4 |
| 20260906141728 | 71 | 178 | 1.0 | 3.0 | 0.00 | 0.00 | 0.00 | 49 | 1023.6 |
| 20260906140724 | 72 | 200 | 0.0 | 3.0 | 0.00 | 0.00 | 0.00 | 49 | 1023.6 |
| 20260906135720 | 73 | 161 | 1.0 | 4.0 | 0.00 | 0.00 | 0.00 | 49 | 1023.8 |
| 20260906134717 | 72 | 156 | 1.0 | 2.0 | 0.00 | 0.00 | 0.00 | 50 | 1024.0 |
| 20260906133734 | 74 | 178 | 1.0 | 4.0 | 0.00 | 0.00 | 0.00 | 46 | 1023.9 |
| 20260906132735 | 74 | 186 | 1.0 | 3.0 | 0.00 | 0.00 | 0.00 | 47 | 1024.1 |
| 20260906131726 | 73 | 219 | 2.0 | 6.0 | 0.00 | 0.00 | 0.00 | 49 | 1024.2 |
| 20260906130722 | 72 | 207 | 1.0 | 3.0 | 0.00 | 0.00 | 0.00 | 53 | 1024.4 |
| 20260906125718 | 71 | 175 | 1.0 | 3.0 | 0.00 | 0.00 | 0.00 | 53 | 1024.5 |
| 20260906124734 | 70 | 175 | 1.0 | 3.0 | 0.00 | 0.00 | 0.00 | 53 | 1024.6 |
| 20260906123731 | 71 | 165 | 1.0 | 6.0 | 0.00 | 0.00 | 0.00 | 55 | 1024.6 |
| 20260906122733 | 70 | 195 | 0.0 | 2.0 | 0.00 | 0.00 | 0.00 | 54 | 1024.8 |
| 20260906121724 | 70 | 180 | 1.0 | 2.0 | 0.00 | 0.00 | 0.00 | 55 | 1025.0 |
| 20260906120720 | 71 | 181 | 1.0 | 2.0 | 0.00 | 0.00 | 0.00 | 54 | 1025.0 |
| 20260906115718 | 71 | 203 | 1.0 | 3.0 | 0.00 | 0.00 | 0.00 | 54 | 1024.9 |
| 20260906114733 | 70 | 246 | 1.0 | 3.0 | 0.00 | 0.00 | 0.00 | 55 | 1025.1 |
| 20260906113729 | 70 | 176 | 1.0 | 4.0 | 0.00 | 0.00 | 0.00 | 53 | 1025.3 |
| 20260906112726 | 69 | 171 | 1.0 | 4.0 | 0.00 | 0.00 | 0.00 | 58 | 1025.4 |
| 20260906111724 | 69 | 175 | 1.0 | 4.0 | 0.00 | 0.00 | 0.00 | 56 | 1025.4 |
| 20260906110718 | 69 | 231 | 1.0 | 3.0 | 0.00 | 0.00 | 0.00 | 57 | 1025.5 |
| 20260906105735 | 69 | 213 | 1.0 | 2.0 | 0.00 | 0.00 | 0.00 | 56 | 1025.7 |
| 20260906104731 | 69 | 194 | 1.0 | 3.0 | 0.00 | 0.00 | 0.00 | 59 | 1025.7 |
| 20260906103728 | 69 | 198 | 1.0 | 3.0 | 0.00 | 0.00 | 0.00 | 59 | 1025.9 |
| 20260906102724 | 69 | 180 | 1.0 | 3.0 | 0.00 | 0.00 | 0.00 | 58 | 1025.9 |
| 20260906101721 | 68 | 250 | 1.0 | 2.0 | 0.00 | 0.00 | 0.00 | 59 | 1026.0 |
| 20260906100718 | 68 | 153 | 1.0 | 3.0 | 0.00 | 0.00 | 0.00 | 59 | 1026.0 |
| 20260906095734 | 66 | 265 | 1.0 | 2.0 | 0.00 | 0.00 | 0.00 | 64 | 1026.0 |
| 20260906094730 | 66 | 255 | 2.0 | 4.0 | 0.00 | 0.00 | 0.00 | 67 | 1026.2 |
| 20260906093727 | 66 | 258 | 1.0 | 4.0 | 0.00 | 0.00 | 0.00 | 65 | 1026.5 |
| 20260906092723 | 64 | 248 | 0.0 | 2.0 | 0.00 | 0.00 | 0.00 | 68 | 1026.3 |
| 20260906091719 | 64 | 252 | 2.0 | 3.0 | 0.00 | 0.00 | 0.00 | 68 | 1026.5 |
| 20260906090715 | 65 | 223 | 1.0 | 3.0 | 0.00 | 0.00 | 0.00 | 66 | 1026.5 |
| 20260906085733 | 65 | 168 | 1.0 | 2.0 | 0.00 | 0.00 | 0.00 | 64 | 1026.4 |
| 20260906084729 | 64 | 166 | 1.0 | 3.0 | 0.00 | 0.00 | 0.00 | 67 | 1026.4 |
| 20260906083725 | 63 | 176 | 1.0 | 2.0 | 0.00 | 0.00 | 0.00 | 71 | 1026.5 |
| 20260906082721 | 60 | 204 | 1.0 | 2.0 | 0.00 | 0.00 | 0.00 | 77 | 1026.5 |
| 20260906081718 | 59 | 164 | 1.0 | 2.0 | 0.00 | 0.00 | 0.00 | 78 | 1026.4 |
| 20260906080734 | 59 | 252 | 1.0 | 2.0 | 0.00 | 0.00 | 0.00 | 81 | 1026.4 |
| 20260906075731 | 58 | 138 | 0.0 | 3.0 | 0.00 | 0.00 | 0.00 | 81 | 1026.4 |
| 20260906074728 | 57 | 159 | 0.0 | 2.0 | 0.00 | 0.00 | 0.00 | 83 | 1026.4 |
| 20260906073724 | 56 | 141 | 0.0 | 2.0 | 0.00 | 0.00 | 0.00 | 86 | 1026.4 |
| 20260906072720 | 56 | 162 | 0.0 | 2.0 | 0.00 | 0.00 | 0.00 | 88 | 1026.3 |
| 20260906071717 | 55 | 0.0 | 0.0 | 0.00 | 0.00 | 0.00 | 89 | 1026.3 | |
| 20260906070733 | 54 | 163 | 0.0 | 1.0 | 0.00 | 0.00 | 0.00 | 91 | 1026.2 |
| 20260906065730 | 53 | 142 | 0.0 | 1.0 | 0.00 | 0.00 | 0.00 | 92 | 1026.1 |
| 20260906064727 | 53 | 158 | 1.0 | 2.0 | 0.00 | 0.00 | 0.00 | 94 | 1026.0 |
| 20260906063723 | 52 | 158 | 0.0 | 2.0 | 0.00 | 0.00 | 0.00 | 95 | 1026.0 |
| 20260906062720 | 51 | 0.0 | 0.0 | 0.00 | 0.00 | 0.00 | 95 | 1025.9 | |
| 20260906061716 | 51 | 0.0 | 0.0 | 0.00 | 0.00 | 0.00 | 95 | 1026.0 | |
| 20260906060733 | 50 | 0.0 | 0.0 | 0.00 | 0.00 | 0.00 | 95 | 1025.9 | |
| 20260906055729 | 50 | 0.0 | 0.0 | 0.00 | 0.00 | 0.00 | 95 | 1025.9 | |
| 20260906054726 | 49 | 128 | 0.0 | 1.0 | 0.00 | 0.00 | 0.00 | 95 | 1025.8 |
| 20260906053722 | 49 | 162 | 0.0 | 1.0 | 0.00 | 0.00 | 0.00 | 95 | 1026.0 |
| 20260906052719 | 49 | 0.0 | 0.0 | 0.00 | 0.00 | 0.00 | 95 | 1025.8 | |
| 20260906051735 | 49 | 188 | 0.0 | 1.0 | 0.00 | 0.00 | 0.00 | 95 | 1025.9 |
| 20260906050732 | 49 | 165 | 0.0 | 1.0 | 0.00 | 0.00 | 0.00 | 95 | 1025.7 |
| 20260906045729 | 49 | 0.0 | 0.0 | 0.00 | 0.00 | 0.00 | 95 | 1025.6 | |
| 20260906044725 | 48 | 0.0 | 0.0 | 0.00 | 0.00 | 0.00 | 95 | 1025.7 | |
| 20260906043721 | 48 | 0.0 | 0.0 | 0.00 | 0.00 | 0.00 | 95 | 1025.6 | |
| 20260906042718 | 48 | 0.0 | 0.0 | 0.00 | 0.00 | 0.00 | 95 | 1025.5 | |
| 20260906041735 | 48 | 0.0 | 0.0 | 0.00 | 0.00 | 0.00 | 94 | 1025.5 | |
| 20260906040731 | 48 | 0.0 | 0.0 | 0.00 | 0.00 | 0.00 | 94 | 1025.6 | |
| 20260906035728 | 48 | 0.0 | 0.0 | 0.00 | 0.00 | 0.00 | 94 | 1025.7 | |
| 20260906034725 | 48 | 0.0 | 0.0 | 0.00 | 0.00 | 0.00 | 94 | 1025.8 | |
| 20260906033723 | 49 | 0.0 | 0.0 | 0.00 | 0.00 | 0.00 | 94 | 1025.8 | |
| 20260906032722 | 49 | 0.0 | 0.0 | 0.00 | 0.00 | 0.00 | 94 | 1025.8 | |
| 20260906031733 | 49 | 0.0 | 0.0 | 0.00 | 0.00 | 0.00 | 94 | 1025.8 | |
| 20260906030730 | 49 | 0.0 | 0.0 | 0.00 | 0.00 | 0.00 | 94 | 1026.0 | |
| 20260906025727 | 48 | 0.0 | 0.0 | 0.00 | 0.00 | 0.00 | 94 | 1026.1 | |
| 20260906024724 | 48 | 0.0 | 0.0 | 0.00 | 0.00 | 0.00 | 93 | 1026.2 | |
| 20260906023720 | 49 | 0.0 | 0.0 | 0.00 | 0.00 | 0.00 | 94 | 1026.0 | |
| 20260906022722 | 49 | 0.0 | 0.0 | 0.00 | 0.00 | 0.00 | 93 | 1025.8 | |
| 20260906021733 | 49 | 156 | 0.0 | 1.0 | 0.00 | 0.00 | 0.00 | 92 | 1025.7 |
| 20260906020730 | 49 | 0.0 | 0.0 | 0.00 | 0.00 | 0.00 | 92 | 1025.5 | |
| 20260906015727 | 49 | 161 | 0.0 | 1.0 | 0.00 | 0.00 | 0.00 | 92 | 1025.6 |
| 20260906014723 | 50 | 0.0 | 0.0 | 0.00 | 0.00 | 0.00 | 92 | 1025.6 | |
| 20260906013720 | 50 | 0.0 | 0.0 | 0.00 | 0.00 | 0.00 | 92 | 1025.6 | |
| 20260906012716 | 50 | 0.0 | 0.0 | 0.00 | 0.00 | 0.00 | 92 | 1025.6 | |
| 20260906011733 | 50 | 0.0 | 0.0 | 0.00 | 0.00 | 0.00 | 91 | 1025.8 | |
| 20260906010729 | 50 | 0.0 | 0.0 | 0.00 | 0.00 | 0.00 | 91 | 1025.7 | |
| 20260906005725 | 50 | 0.0 | 0.0 | 0.00 | 0.00 | 0.00 | 91 | 1025.9 | |
| 20260906004722 | 50 | 0.0 | 0.0 | 0.00 | 0.00 | 0.00 | 90 | 1025.7 | |
| 20260906003718 | 51 | 0.0 | 0.0 | 0.00 | 0.00 | 0.00 | 90 | 1025.8 | |
| 20260906002720 | 51 | 0.0 | 0.0 | 0.00 | 0.00 | 0.00 | 90 | 1025.7 | |
| 20260906001732 | 51 | 0.0 | 0.0 | 0.00 | 0.00 | 0.00 | 89 | 1025.5 | |
| 20260906000729 | 51 | 0.0 | 0.0 | 0.00 | 0.00 | 0.00 | 89 | 1025.4 | |
| 20260905235725 | 52 | 0.0 | 0.0 | 0.00 | 0.00 | 0.00 | 89 | 1025.5 | |
| 20260905234722 | 52 | 0.0 | 0.0 | 0.00 | 0.00 | 0.00 | 89 | 1025.4 | |
| 20260905233718 | 52 | 0.0 | 0.0 | 0.00 | 0.00 | 0.00 | 88 | 1025.5 | |
| 20260905232735 | 53 | 0.0 | 0.0 | 0.00 | 0.00 | 0.00 | 88 | 1025.5 | |
| 20260905231732 | 53 | 0.0 | 0.0 | 0.00 | 0.00 | 0.00 | 88 | 1025.3 | |
| 20260905230728 | 53 | 0.0 | 0.0 | 0.00 | 0.00 | 0.00 | 87 | 1025.4 | |
| 20260905225725 | 53 | 0.0 | 0.0 | 0.00 | 0.00 | 0.00 | 87 | 1025.3 | |
| 20260905224721 | 53 | 0.0 | 0.0 | 0.00 | 0.00 | 0.00 | 87 | 1025.1 | |
| 20260905223717 | 53 | 290 | 0.0 | 1.0 | 0.00 | 0.00 | 0.00 | 86 | 1025.2 |
| 20260905222734 | 54 | 0.0 | 0.0 | 0.00 | 0.00 | 0.00 | 86 | 1025.2 | |
| 20260905221731 | 54 | 279 | 0.0 | 1.0 | 0.00 | 0.00 | 0.00 | 85 | 1025.1 |
| 20260905220728 | 54 | 0.0 | 0.0 | 0.00 | 0.00 | 0.00 | 85 | 1025.0 | |
| 20260905215725 | 54 | 0.0 | 0.0 | 0.00 | 0.00 | 0.00 | 84 | 1025.0 | |
| 20260905214720 | 55 | 0.0 | 0.0 | 0.00 | 0.00 | 0.00 | 83 | 1024.9 | |
| 20260905213717 | 55 | 0.0 | 0.0 | 0.00 | 0.00 | 0.00 | 82 | 1024.7 | |
| 20260905212738 | 56 | 0.0 | 0.0 | 0.00 | 0.00 | 0.00 | 81 | 1024.7 | |
| 20260905211732 | 56 | 218 | 0.0 | 1.0 | 0.00 | 0.00 | 0.00 | 81 | 1024.7 |
| 20260905210727 | 57 | 0.0 | 0.0 | 0.00 | 0.00 | 0.00 | 79 | 1024.7 | |
| 20260905205723 | 57 | 235 | 0.0 | 1.0 | 0.00 | 0.00 | 0.00 | 78 | 1024.6 |
| 20260905204721 | 58 | 282 | 0.0 | 1.0 | 0.00 | 0.00 | 0.00 | 77 | 1024.5 |
| 20260905203716 | 58 | 0.0 | 0.0 | 0.00 | 0.00 | 0.00 | 77 | 1024.5 | |
| 20260905202738 | 59 | 211 | 0.0 | 1.0 | 0.00 | 0.00 | 0.00 | 76 | 1024.3 |
| 20260905201730 | 59 | 310 | 1.0 | 2.0 | 0.00 | 0.00 | 0.00 | 76 | 1024.2 |